Wetbulb
66.78 66.60 66.36 65.87 65.48 65.28 64.93 64.42 64.00 63.55 63.58 63.42 63.34 63.18 62.87 63.15 63.59 63.46 63.92 65.60 64.85 64.57 65.35 66.47 68.53 69.86 70.99 71.88 72.59 72.97 73.08 72.90 72.48 72.45 72.12 71.75 71.38 71.64 71.21 70.78 69.80 69.17 68.85
66.33 65.62 65.29 65.06 64.91 64.69 64.70 64.10 63.85 63.27 63.01 63.01 62.80 63.13 63.01 63.30 63.12 63.32 62.81 63.24 63.87 63.19 64.00 65.00 66.25 67.72 69.79 71.03 72.18 71.94 71.64 72.08 72.69 72.42 72.05 71.57 71.29 71.08 71.64 71.27 70.74 69.82 69.59
64.55 64.02 62.24 61.69 61.40 61.70 62.15 62.93 63.58 63.73 63.26 62.95 62.06 61.84 61.87 62.25 62.51 62.71 62.62 62.97 63.36 65.00 63.41 64.21 65.67 67.07 68.15 68.93 69.68 71.96 71.43 70.86 72.11 72.12 71.98 71.02 71.21 71.01 71.53 71.08 70.99 70.43 69.68
62.84 62.50 60.55 60.64 61.21 60.86 60.41 60.16 60.24 60.74 61.64 61.76 61.29 61.53 61.47 61.88 61.47 61.37 61.20 61.58 61.57 61.76 63.66 65.05 65.06 66.50 68.77 68.61 68.80 69.88 71.25 71.25 71.19 71.57 71.57 71.57 71.02 70.86 70.39 70.62 70.33 69.42 70.15
61.02 61.51 60.53 60.49 61.08 59.74 59.38 59.01 58.78 59.26 58.78 59.49 59.93 60.57 60.91 60.88 60.43 59.42 59.70 60.23 60.93 61.48 61.64 63.81 64.67 67.78 67.25 67.51 67.68 68.23 68.71 68.85 69.31 70.37 71.31 71.38 70.72 70.96 70.60 70.31 69.98 69.55 70.03
61.04 61.08 60.53 60.40 59.92 58.37 57.93 57.81 57.74 58.42 58.55 58.70 58.12 58.01 59.31 59.73 59.23 58.54 58.68 58.54 60.11 61.10 62.06 63.25 64.78 65.68 65.77 66.54 67.27 68.12 66.95 67.08 67.09 67.90 69.22 69.73 70.44 70.82 70.62 70.29 70.16 69.74 70.27
60.79 61.20 59.67 59.28 58.93 57.42 57.29 57.46 57.20 57.39 57.41 59.46 57.82 57.36 58.01 58.80 58.00 57.73 58.54 58.76 60.54 61.33 64.58 65.08 64.11 64.81 64.74 64.61 64.87 65.70 67.56 67.82 66.77 65.89 66.91 68.54 69.34 70.32 70.53 70.19 70.13 70.19 70.11
60.61 60.18 59.60 58.30 58.27 56.59 56.71 56.61 56.64 56.02 56.08 57.61 54.78 55.00 51.91 54.07 55.74 57.90 58.30 58.02 59.97 60.65 63.43 63.99 64.74 65.73 66.40 65.82 65.61 65.44 67.00 68.04 68.34 66.98 67.04 66.91 68.33 69.87 70.24 70.14 70.44 69.77 68.95
60.20 59.94 59.12 58.29 58.01 57.20 55.24 55.65 55.77 56.04 53.94 55.90 57.37 53.65 50.15 48.78 51.88 55.82 56.44 58.62 57.28 60.87 62.30 63.18 63.37 63.82 64.85 65.56 66.32 66.66 65.74 66.40 67.05 67.66 67.09 66.26 66.57 68.52 69.69 70.15 70.03 69.80 69.20
58.85 58.68 58.39 58.19 57.60 56.66 55.66 54.64 54.30 54.43 54.69 51.85 53.81 54.91 55.46 53.24 48.34 48.97 54.78 56.28 56.69 57.36 59.56 59.92 61.13 62.99 64.04 65.45 64.59 64.06 65.67 65.47 65.87 66.31 67.29 67.03 65.11 65.08 69.87 70.83 70.38 69.88 69.46
58.79 58.02 57.62 56.67 55.91 55.14 54.85 54.93 53.96 54.02 54.24 52.39 52.52 51.40 52.63 52.38 52.06 49.51 48.95 51.86 57.18 56.25 57.69 57.85 59.28 60.57 61.76 64.30 65.01 63.62 63.24 63.66 63.99 65.18 67.69 68.05 67.67 67.20 69.53 69.98 69.61 69.09 68.55
56.78 56.06 55.63 55.69 55.31 54.27 53.82 53.71 54.28 54.10 53.43 52.09 51.85 51.53 50.80 50.28 50.49 49.83 49.88 50.84 51.44 54.65 57.13 58.26 59.04 60.68 61.99 63.62 63.43 62.30 62.13 62.22 62.32 63.03 65.27 66.72 68.14 69.09 69.41 69.58 68.74 68.41 67.19
53.45 54.20 55.56 53.97 53.20 53.82 53.76 54.59 54.24 53.77 52.77 51.07 50.37 49.81 51.13 51.15 51.95 52.31 49.37 49.61 49.50 52.77 55.28 58.63 59.70 61.23 61.19 62.10 62.94 62.09 61.80 60.81 60.48 60.94 61.99 63.26 64.06 64.68 65.63 66.38 65.58 64.68 64.65
53.12 54.89 53.53 53.35 53.62 53.50 53.60 53.34 53.36 53.42 52.45 50.94 50.42 50.20 50.26 50.62 51.52 50.96 49.97 48.96 46.88 48.77 52.74 53.90 59.17 59.08 60.50 60.34 60.67 60.24 59.40 59.26 58.47 58.56 59.34 60.66 61.92 62.59 62.89 62.80 62.32 61.73 61.08
53.60 53.29 53.27 52.64 52.89 53.47 53.07 52.64 52.22 52.05 51.85 51.42 52.03 50.89 50.35 50.58 50.96 51.12 51.33 50.73 48.52 44.97 47.09 53.05 53.27 56.52 57.54 57.41 57.37 56.95 56.60 57.44 57.52 56.82 57.22 57.66 58.27 58.64 59.08 59.12 58.96 58.21 57.75
54.54 53.44 52.54 52.20 53.54 53.98 52.68 52.37 52.81 52.61 51.10 51.16 51.22 50.22 50.50 51.05 50.99 51.18 51.11 50.97 50.53 48.92 47.24 52.80 53.54 55.19 55.40 55.38 56.31 55.09 55.04 55.94 55.83 55.64 55.46 55.28 55.58 55.99 56.21 56.38 56.16 55.62 55.55
54.86 52.41 51.51 51.77 51.77 51.65 52.07 51.85 51.90 51.54 50.34 50.61 51.74 50.38 49.98 50.53 50.01 50.89 51.29 50.89 50.77 51.00 48.45 52.02 52.87 53.08 51.70 50.98 51.41 52.59 53.73 52.97 53.35 53.95 54.08 53.60 53.31 53.66 53.67 53.97 54.03 54.00 53.83
53.51 51.63 51.39 51.01 51.71 51.94 52.21 51.49 52.07 51.95 50.15 49.47 50.08 49.77 49.66 51.73 52.86 53.71 51.22 51.05 51.39 52.40 50.85 48.67 49.12 49.32 49.37 50.07 49.72 50.09 50.01 50.75 50.98 52.27 51.77 51.35 50.86 50.97 50.89 50.76 50.96 51.06 51.35
52.11 51.34 51.04 50.89 51.78 51.61 51.50 51.98 51.13 50.95 51.57 50.54 51.90 52.28 52.64 52.53 51.39 53.00 53.48 52.00 51.74 52.86 51.92 48.63 47.15 48.16 48.16 49.06 50.71 49.98 50.13 49.99 49.98 51.34 50.75 50.40 49.81 49.51 49.00 48.73 48.79 48.76 48.52
51.04 50.70 51.08 51.51 52.01 51.76 51.14 51.29 51.48 51.66 51.72 51.95 52.93 52.84 51.25 51.34 51.08 52.99 52.63 53.26 52.05 51.80 48.90 47.78 46.34 46.21 46.72 47.35 47.40 46.30 44.09 42.53 44.58 47.59 49.24 49.15 49.36 49.82 49.28 48.57 48.15 47.48 46.58
50.04 50.72 51.76 51.63 52.09 51.45 51.82 51.63 51.57 52.50 52.01 50.57 49.61 51.13 53.06 53.62 53.53 53.49 54.48 54.29 51.18 48.94 47.77 46.23 45.34 45.67 44.53 44.46 43.84 43.86 41.51 40.32 41.56 43.11 43.78 45.84 47.97 48.57 48.21 48.33 48.27 47.44 46.35
49.99 50.74 51.20 51.58 51.15 51.34 48.28 49.00 50.21 52.02 50.25 48.25 48.67 50.79 52.30 50.93 53.96 53.75 53.82 52.84 52.25 49.00 47.12 46.34 46.00 44.54 44.31 44.29 43.15 44.23 42.45 40.80 41.06 47.42 45.54 44.89 47.54 45.67 46.39 47.17 46.06 46.45 46.19
49.19 50.47 51.30 51.25 50.42 52.30 46.44 46.10 47.91 52.49 49.68 49.38 50.24 50.74 50.52 50.89 53.52 52.86 51.81 51.55 50.82 50.03 49.78 48.14 46.31 44.64 43.62 43.70 42.89 43.15 44.42 45.03 44.00 46.52 46.03 43.10 44.76 43.70 44.36 45.14 45.72 46.02 46.18
49.78 49.85 51.27 50.57 50.24 50.80 44.43 43.47 45.91 53.72 51.65 52.21 51.97 52.18 52.39 51.54 53.90 52.81 51.63 50.10 49.98 50.27 50.11 49.99 48.96 47.99 47.85 47.16 48.25 47.97 47.84 46.88 47.54 47.91 49.23 42.43 44.63 42.81 46.10 45.77 44.41 45.00 45.00
49.21 50.30 50.54 49.45 51.16 52.26 43.88 43.32 48.14 52.88 52.55 52.66 52.43 50.19 54.12 55.65 48.00 49.22 52.60 50.86 50.46 50.06 49.97 49.01 47.83 46.42 45.41 46.21 48.87 47.42 46.79 46.80 46.10 46.75 48.75 45.85 45.63 45.50 46.62 46.14 45.20 43.25 43.12
48.84 50.15 48.69 49.19 47.55 49.34 44.94 43.29 48.91 51.64 51.34 53.16 53.64 53.20 45.26 51.49 46.07 48.03 54.74 51.95 50.56 50.33 49.13 48.65 48.79 47.56 49.87 48.78 48.08 50.61 48.91 47.33 46.08 45.54 49.73 46.21 46.87 47.42 44.00 46.30 46.43 46.92 45.38
MSLP
1019.67 1019.63 1019.66 1019.51 1019.37 1019.18 1018.83 1018.52 1018.28 1018.07 1017.88 1017.53 1017.30 1017.04 1016.68 1016.66 1016.63 1016.47 1016.31 1016.52 1016.49 1016.25 1016.03 1015.96 1015.75 1015.50 1015.33 1015.24 1015.27 1015.37 1015.34 1015.53 1015.85 1016.12 1016.35 1016.68 1017.07 1017.46 1017.63 1017.80 1018.17 1018.50 1018.71
1019.83 1019.71 1019.57 1019.48 1019.33 1019.27 1018.98 1018.62 1018.22 1017.95 1017.55 1017.40 1017.12 1017.09 1016.98 1016.72 1016.53 1016.31 1015.98 1015.85 1016.01 1016.15 1015.69 1015.60 1015.58 1015.39 1015.08 1014.85 1014.79 1014.89 1015.04 1015.01 1015.21 1015.44 1015.71 1016.13 1016.45 1016.88 1017.05 1017.37 1017.58 1018.09 1018.36
1020.03 1019.96 1019.71 1019.63 1019.54 1019.37 1019.00 1018.57 1018.13 1017.82 1017.46 1017.06 1016.95 1016.73 1016.65 1016.47 1016.25 1016.31 1016.22 1015.69 1015.36 1015.28 1015.36 1015.18 1015.06 1015.01 1014.90 1014.74 1014.49 1014.33 1014.37 1014.46 1014.69 1014.90 1015.07 1015.30 1015.83 1016.07 1016.46 1016.96 1017.21 1017.72 1018.22
1020.19 1020.01 1019.74 1019.67 1019.64 1019.26 1018.87 1018.55 1018.13 1017.68 1017.27 1016.95 1016.67 1016.44 1016.31 1016.30 1016.18 1016.12 1015.83 1015.62 1015.24 1014.83 1014.55 1014.67 1014.64 1014.60 1014.61 1014.46 1014.37 1013.99 1013.82 1013.88 1014.12 1014.28 1014.53 1014.84 1015.19 1015.54 1015.83 1016.21 1016.78 1017.09 1017.36
1020.15 1020.20 1020.02 1019.95 1019.90 1019.36 1018.98 1018.69 1018.22 1017.90 1017.35 1016.89 1016.43 1016.11 1016.03 1015.91 1015.78 1015.51 1015.59 1015.33 1015.07 1014.82 1014.14 1014.06 1014.25 1014.12 1014.26 1014.25 1014.02 1013.80 1013.76 1013.69 1013.82 1013.88 1013.94 1014.05 1014.36 1014.87 1015.13 1015.56 1015.92 1016.68 1016.72
1020.42 1020.39 1020.12 1020.19 1019.97 1019.49 1019.09 1018.83 1018.62 1018.05 1017.59 1016.97 1016.34 1015.74 1015.64 1015.64 1015.54 1015.32 1015.12 1014.90 1014.55 1014.33 1013.94 1013.80 1013.51 1013.44 1013.84 1014.01 1013.85 1013.74 1013.60 1013.54 1013.54 1013.81 1013.74 1013.45 1013.84 1014.09 1014.45 1014.83 1015.07 1015.83 1016.22
1020.22 1020.26 1020.02 1020.05 1019.92 1019.61 1019.42 1019.06 1018.49 1017.87 1017.16 1016.79 1016.48 1015.64 1015.40 1015.46 1015.28 1014.95 1014.82 1014.58 1014.20 1014.09 1013.65 1013.24 1013.32 1013.42 1013.41 1013.77 1013.83 1013.64 1013.48 1013.17 1013.27 1013.62 1014.17 1013.00 1013.24 1013.50 1013.75 1014.19 1014.37 1014.84 1015.41
1019.90 1019.80 1019.93 1019.67 1019.61 1019.41 1019.25 1019.02 1018.65 1018.03 1017.33 1017.02 1016.60 1015.93 1015.22 1014.65 1014.45 1014.74 1014.73 1014.47 1014.21 1013.84 1013.30 1013.26 1013.47 1013.48 1013.51 1013.57 1013.42 1013.36 1013.11 1012.77 1012.75 1012.70 1012.17 1012.51 1013.02 1013.00 1013.36 1013.65 1013.67 1014.26 1014.62
1019.81 1019.81 1019.78 1019.69 1019.49 1019.23 1018.72 1018.74 1018.48 1018.09 1017.33 1016.80 1016.88 1016.43 1015.56 1014.75 1014.66 1014.44 1014.52 1014.60 1014.67 1014.06 1013.64 1013.54 1013.70 1013.66 1013.74 1013.45 1013.13 1012.81 1012.91 1012.69 1012.58 1012.44 1012.65 1012.66 1012.78 1012.68 1012.92 1012.72 1013.08 1013.46 1014.06
1019.76 1019.86 1019.83 1019.57 1019.27 1018.82 1018.63 1018.55 1018.24 1018.11 1017.78 1017.20 1017.00 1016.75 1016.75 1016.67 1015.71 1014.63 1014.28 1014.40 1014.89 1014.78 1014.59 1014.48 1014.15 1013.75 1013.68 1013.39 1013.56 1013.41 1012.95 1012.81 1012.66 1012.52 1012.16 1011.84 1011.41 1011.34 1012.17 1012.32 1012.67 1012.96 1013.58
1019.61 1019.44 1019.25 1019.20 1018.93 1018.53 1018.39 1018.34 1018.09 1017.84 1017.58 1017.35 1017.19 1017.12 1016.86 1016.65 1016.53 1016.12 1014.66 1014.29 1014.42 1015.08 1015.01 1014.88 1014.54 1014.25 1014.11 1013.66 1013.45 1013.62 1013.56 1013.29 1013.09 1012.53 1011.53 1011.23 1011.04 1010.59 1011.85 1012.26 1012.57 1012.85 1013.66
1019.28 1019.25 1019.10 1018.86 1018.57 1018.53 1018.34 1018.11 1017.79 1017.51 1017.34 1017.43 1017.37 1017.18 1017.05 1016.91 1016.38 1016.35 1015.69 1015.21 1014.83 1014.66 1015.19 1014.90 1014.67 1014.35 1014.31 1013.99 1013.88 1014.01 1013.86 1013.78 1013.39 1012.86 1012.08 1011.34 1010.83 1010.74 1012.25 1012.43 1012.79 1013.42 1014.52
1019.19 1019.09 1018.92 1018.80 1018.52 1018.15 1017.96 1017.73 1017.44 1017.24 1017.19 1017.21 1017.12 1016.94 1016.89 1016.75 1016.59 1016.40 1016.44 1015.92 1015.51 1014.94 1015.18 1014.84 1014.70 1014.43 1014.46 1014.35 1014.17 1014.20 1014.27 1014.29 1014.03 1013.75 1013.29 1012.79 1012.30 1012.21 1012.72 1013.30 1013.80 1014.53 1015.26
1018.97 1018.86 1018.92 1018.60 1018.17 1017.78 1017.48 1017.30 1016.92 1016.72 1016.77 1016.78 1016.70 1016.63 1016.47 1016.31 1016.28 1016.21 1016.12 1016.06 1015.88 1015.70 1015.21 1014.81 1014.78 1014.79 1014.73 1014.81 1014.78 1014.92 1015.06 1014.94 1014.84 1014.70 1014.40 1014.22 1014.07 1014.05 1014.25 1014.26 1014.96 1015.39 1016.33
1018.77 1018.57 1018.56 1018.26 1017.85 1017.37 1017.14 1016.92 1016.55 1016.49 1016.40 1016.26 1016.03 1016.02 1015.99 1015.96 1015.94 1015.86 1015.80 1015.75 1015.63 1015.66 1015.03 1014.80 1014.93 1015.22 1015.24 1015.43 1015.57 1015.66 1015.87 1015.80 1015.71 1015.65 1015.52 1015.55 1015.61 1015.75 1015.96 1016.05 1016.23 1016.68 1016.96
1018.57 1018.45 1018.21 1017.90 1017.36 1017.02 1016.86 1016.59 1016.21 1016.05 1015.96 1015.77 1015.71 1015.65 1015.56 1015.49 1015.46 1015.45 1015.36 1015.45 1015.63 1015.67 1015.29 1014.78 1014.95 1015.30 1015.57 1015.94 1016.22 1016.34 1016.50 1016.68 1016.88 1016.91 1016.82 1016.77 1016.79 1017.05 1017.32 1017.59 1017.76 1018.02 1018.54
1018.28 1018.20 1017.92 1017.54 1017.18 1016.92 1016.57 1016.23 1015.92 1015.70 1015.55 1015.38 1015.20 1015.15 1015.08 1015.07 1014.96 1014.84 1014.88 1015.07 1015.16 1015.36 1015.27 1015.07 1015.23 1015.69 1016.25 1016.63 1017.14 1017.17 1017.48 1017.67 1017.98 1018.10 1018.18 1018.19 1018.38 1018.61 1018.83 1019.13 1019.13 1019.39 1019.96
1018.14 1017.99 1017.64 1017.29 1016.96 1016.63 1016.24 1015.92 1015.43 1015.26 1015.19 1015.04 1014.90 1014.82 1014.62 1014.41 1014.21 1014.14 1014.49 1014.60 1014.78 1014.93 1015.22 1015.70 1015.88 1016.39 1016.96 1017.46 1017.83 1017.69 1018.26 1018.65 1019.04 1019.44 1019.53 1019.66 1019.86 1020.14 1020.28 1020.20 1020.41 1020.78 1021.04
1017.93 1017.69 1017.38 1017.03 1016.63 1016.35 1015.98 1015.61 1015.48 1015.17 1014.91 1014.82 1014.47 1014.17 1013.86 1013.76 1013.74 1013.63 1013.67 1013.96 1014.32 1014.69 1015.12 1015.66 1016.63 1017.00 1017.72 1018.14 1017.98 1018.56 1018.98 1019.48 1020.01 1020.47 1020.71 1020.88 1021.06 1021.15 1021.16 1021.72 1021.78 1021.98 1022.21
1017.78 1017.39 1017.10 1016.75 1016.43 1016.14 1015.83 1015.53 1015.30 1014.98 1014.84 1014.51 1014.24 1014.00 1013.79 1013.51 1013.31 1013.04 1013.13 1013.37 1013.85 1014.31 1015.20 1016.01 1016.89 1017.68 1018.21 1018.97 1019.24 1019.36 1019.90 1020.87 1021.18 1021.50 1021.56 1021.70 1021.85 1022.03 1022.44 1022.18 1022.64 1022.91 1023.06
1017.59 1017.25 1016.81 1016.52 1016.28 1016.07 1015.69 1015.54 1015.21 1014.97 1014.83 1014.65 1014.42 1013.94 1013.46 1012.63 1012.48 1012.33 1012.20 1013.00 1013.75 1014.50 1015.44 1016.53 1017.22 1018.03 1018.90 1019.39 1019.91 1020.23 1020.40 1021.31 1021.92 1022.02 1021.89 1021.98 1021.80 1022.03 1022.66 1023.00 1023.11 1023.60 1024.11
1017.36 1017.00 1016.64 1016.35 1016.20 1016.01 1015.91 1015.66 1015.44 1015.12 1015.04 1014.92 1014.44 1013.94 1013.59 1013.02 1012.02 1012.17 1012.57 1013.36 1013.89 1014.80 1015.82 1016.72 1017.49 1018.32 1019.29 1019.84 1020.75 1020.54 1020.70 1020.95 1021.21 1021.92 1022.02 1022.52 1022.65 1022.82 1023.27 1023.62 1024.03 1024.22 1024.17
1017.34 1016.86 1016.54 1016.38 1016.32 1015.96 1016.11 1015.78 1015.60 1015.18 1015.16 1014.96 1014.63 1014.29 1014.02 1013.51 1013.11 1013.20 1013.70 1014.16 1014.88 1015.48 1015.77 1016.71 1017.65 1018.66 1019.58 1020.36 1020.77 1020.97 1020.96 1020.87 1021.33 1022.05 1022.30 1022.73 1023.76 1023.63 1024.26 1024.53 1024.61 1024.65 1024.93
1017.25 1016.97 1016.62 1016.64 1016.49 1016.30 1016.31 1015.94 1015.68 1015.28 1015.24 1015.05 1014.91 1014.62 1014.33 1014.33 1014.14 1014.16 1014.56 1015.12 1015.84 1016.42 1016.99 1017.63 1018.11 1019.13 1019.83 1020.77 1020.78 1020.74 1020.96 1021.37 1021.88 1022.17 1022.34 1022.68 1023.88 1024.01 1024.20 1024.86 1025.39 1025.41 1025.43
1017.32 1016.94 1017.01 1016.95 1016.56 1016.47 1016.51 1016.20 1015.87 1015.60 1015.35 1015.24 1015.34 1015.38 1014.78 1014.86 1015.14 1015.07 1015.33 1015.84 1016.50 1017.32 1018.03 1018.47 1019.03 1019.77 1020.50 1020.73 1020.59 1020.88 1020.96 1020.92 1021.27 1022.11 1022.58 1022.81 1023.52 1023.79 1024.33 1024.76 1025.82 1026.09 1026.29
1017.37 1017.10 1017.31 1017.34 1017.36 1017.04 1016.86 1016.58 1016.31 1016.16 1015.82 1015.31 1015.55 1015.71 1015.79 1015.72 1015.88 1015.85 1015.90 1016.44 1017.00 1017.94 1018.71 1019.51 1020.12 1020.58 1020.79 1021.21 1021.23 1021.31 1021.32 1021.20 1021.58 1021.93 1022.93 1022.78 1023.07 1022.99 1023.67 1024.72 1025.13 1025.43 1025.97
Wind_Speed
4 4 4 4 5 5 6 7 6 6 7 7 7 7 7 6 6 5 4 7 9 8 9 12 15 14 11 12 14 15 15 19 20 21 20 20 19 18 18 18 18 17 16
3 3 3 4 5 5 6 6 7 7 7 6 7 7 8 7 8 6 6 6 6 11 7 11 14 15 13 11 12 14 13 15 20 21 21 21 20 21 21 19 19 19 17
3 4 4 4 5 6 9 7 8 6 7 6 8 7 7 8 7 7 8 7 8 8 9 11 13 14 14 11 11 14 17 16 17 20 21 22 22 22 22 22 20 19 17
3 4 5 6 7 7 8 8 9 9 9 8 8 8 8 7 8 8 8 8 9 10 9 13 12 13 10 8 9 10 13 14 14 17 19 21 23 23 23 23 20 19 22
5 5 5 6 7 8 8 8 9 9 10 10 10 10 9 8 8 7 10 12 13 12 10 12 14 10 9 8 7 6 6 4 5 9 15 19 22 23 23 21 23 23 23
3 4 4 6 7 8 9 9 11 10 10 10 11 12 10 9 7 8 10 10 11 12 12 11 8 7 7 6 7 7 7 5 5 10 10 6 15 22 23 24 24 24 23
4 4 5 7 8 8 9 11 11 11 9 6 8 8 7 7 8 10 7 7 7 6 10 8 5 4 5 6 8 7 8 10 9 6 16 8 11 16 20 23 23 23 21
4 5 6 8 8 8 9 10 10 9 9 7 7 7 8 7 7 4 6 6 6 6 5 4 2 2 2 4 6 11 11 9 9 11 9 3 11 12 18 22 23 26 28
5 6 8 8 8 8 9 10 11 12 10 8 7 6 6 8 7 4 4 3 7 6 4 3 5 4 4 4 6 4 5 7 7 10 11 13 10 10 15 19 20 21 21
7 7 8 9 9 9 10 11 8 8 6 7 4 5 5 5 5 6 3 3 3 4 7 4 4 4 5 3 3 9 9 6 5 4 10 11 8 9 15 15 15 14 14
7 8 10 12 11 9 10 10 9 8 5 5 4 2 2 4 5 6 9 5 1 3 3 3 4 2 4 4 3 7 11 11 9 10 6 15 17 18 19 14 15 14 16
8 11 12 11 10 8 8 8 8 8 5 3 3 4 5 4 3 4 6 8 7 4 2 2 2 2 3 2 4 10 12 12 12 14 14 15 9 12 13 17 15 26 29
10 10 11 10 9 9 9 7 8 7 6 5 6 6 5 6 6 6 4 5 5 4 3 2 1 2 2 4 5 7 12 14 15 13 15 18 25 29 28 29 31 30 30
9 11 10 10 10 10 8 8 8 7 7 5 8 8 7 6 6 6 6 4 3 3 4 5 2 3 4 5 12 17 10 19 19 19 20 20 21 22 25 29 29 30 29
9 10 11 11 11 9 9 9 7 7 6 6 9 6 5 5 5 6 4 3 3 3 7 4 2 2 6 6 11 10 10 21 22 21 22 22 23 24 24 25 26 27 27
11 10 11 10 10 9 8 8 7 7 7 5 4 7 6 5 5 4 4 4 5 4 4 2 2 3 8 7 13 11 14 19 22 23 24 24 24 23 23 22 24 26 24
11 10 9 9 9 9 8 7 8 7 7 7 7 6 7 6 5 4 4 5 5 6 5 1 3 6 9 10 9 10 12 11 12 24 24 25 25 24 23 21 22 23 22
11 10 9 8 9 8 7 7 8 7 6 8 5 5 7 6 8 7 5 7 6 7 2 2 4 4 9 10 10 13 11 11 11 21 23 23 23 22 21 21 20 19 18
10 9 8 8 8 8 7 7 6 7 7 5 8 9 8 7 7 7 8 6 5 5 4 6 6 6 6 7 11 11 14 14 11 22 22 23 22 20 19 17 18 18 18
9 7 7 7 8 7 6 6 6 6 6 6 7 7 8 8 9 9 8 8 5 6 11 9 9 9 9 7 7 9 13 8 9 10 18 19 19 22 19 19 18 18 17
7 7 8 7 7 5 4 6 5 6 7 8 7 7 7 8 2 8 8 9 10 11 9 9 9 9 9 8 7 5 12 8 8 5 8 8 9 11 11 15 17 15 14
7 8 7 6 6 4 7 5 5 5 5 4 6 6 6 10 7 15 17 18 15 14 12 9 9 10 9 10 6 6 11 9 11 8 10 12 9 12 11 10 11 12 14
7 9 6 5 5 4 7 7 8 5 4 4 4 5 6 6 12 14 18 20 17 17 16 12 12 11 13 11 9 7 3 7 11 9 10 12 10 10 10 11 16 12 12
7 6 6 4 3 6 10 10 9 5 3 5 6 6 7 6 10 13 13 14 13 12 11 8 11 11 12 12 8 8 11 13 10 9 9 11 9 9 9 12 19 17 14
6 5 4 5 5 8 11 10 7 5 5 6 7 8 7 9 8 10 13 13 13 12 13 15 16 16 12 7 8 11 9 10 10 9 7 9 9 9 9 9 10 16 14
5 2 5 6 7 6 9 8 5 3 4 5 7 7 11 7 7 8 14 11 12 12 13 13 12 12 11 9 7 5 4 8 9 8 6 8 8 7 9 8 7 7 9
Wind_Direction
18 354 354 330 323 319 306 296 286 282 275 264 264 263 262 269 271 277 282 293 303 310 328 318 307 307 294 272 254 246 246 224 221 219 217 214 211 210 206 203 200 198 192
38 12 355 345 334 328 320 310 302 291 274 266 266 269 280 279 275 273 278 280 289 296 309 316 302 294 295 290 258 239 245 232 224 221 220 219 210 209 209 207 199 200 195
59 5 343 327 331 327 317 309 299 286 273 261 262 264 270 272 274 289 292 286 286 265 281 292 294 289 278 285 281 240 231 234 229 224 222 220 219 213 206 212 203 200 200
28 343 331 332 340 325 320 311 303 292 284 278 277 278 284 274 277 277 279 290 287 285 281 265 282 280 269 261 275 274 245 230 231 228 226 227 227 224 213 210 205 210 203
10 338 327 333 333 325 318 315 309 302 286 277 274 269 270 271 274 287 290 287 280 274 273 270 274 255 260 250 276 281 277 254 279 263 232 230 228 225 229 212 208 211 211
334 322 326 325 323 319 315 322 312 302 291 287 282 279 280 274 274 290 289 285 278 274 265 260 254 239 258 305 310 290 265 268 282 301 292 284 248 227 222 216 218 210 213
352 337 322 319 318 314 320 314 307 306 306 301 279 259 262 255 284 301 290 299 271 289 267 246 237 250 258 292 290 303 278 247 220 237 282 330 281 245 223 216 213 214 212
334 310 311 317 313 309 314 321 308 301 292 286 292 295 278 274 281 303 293 294 311 296 255 162 220 258 317 300 307 298 285 267 234 205 214 296 297 263 230 219 203 218 208
323 317 314 312 302 294 305 315 311 298 290 284 270 284 283 283 325 290 307 305 342 337 310 291 27 351 328 324 309 322 309 282 260 216 205 183 233 266 240 219 210 210 209
329 320 311 311 309 302 299 301 301 289 273 274 309 256 250 282 300 294 284 303 360 3 355 359 340 354 347 359 354 27 36 69 41 300 252 242 239 266 257 221 205 198 208
317 318 319 316 310 302 304 300 294 287 256 264 262 306 265 259 253 267 288 301 317 29 3 328 319 342 335 359 40 55 44 45 29 346 257 229 223 203 251 224 207 128 137
323 321 315 307 302 297 290 291 291 283 271 270 266 244 255 270 283 246 276 282 292 308 324 297 323 2 10 322 87 81 61 44 29 20 58 68 109 152 151 130 133 132 125
319 312 309 307 300 293 290 287 285 275 253 251 260 274 267 251 263 254 233 263 276 301 273 221 157 96 61 47 49 105 87 68 48 42 54 71 83 88 88 97 102 99 101
311 310 300 298 296 293 290 292 285 282 271 266 271 261 254 244 242 237 241 207 195 246 271 252 144 69 91 84 86 73 74 74 73 62 62 69 79 91 103 104 104 102 100
307 297 304 300 297 292 298 301 293 287 290 282 273 254 251 250 247 244 226 206 172 195 253 221 142 93 97 87 88 80 74 72 68 70 71 73 78 83 87 91 93 96 103
302 305 309 305 309 309 307 294 298 295 286 273 258 253 257 253 254 237 225 201 204 215 270 175 122 114 100 91 90 84 79 74 73 71 71 72 73 75 79 86 95 97 94
309 310 303 306 308 305 302 299 296 293 295 282 280 254 266 258 251 233 210 200 207 211 231 97 53 100 91 94 80 78 79 75 70 72 72 72 73 72 74 80 83 91 96
316 305 301 302 301 301 302 307 313 315 312 289 275 268 272 266 245 232 205 212 209 220 181 204 85 99 90 89 95 96 86 80 79 76 77 75 75 78 77 75 79 84 88
313 303 300 299 313 307 311 306 315 315 300 317 305 300 286 273 261 239 214 205 196 200 165 133 120 95 90 90 98 87 88 84 85 82 82 82 82 81 82 88 88 86 79
309 300 301 304 312 314 312 324 324 321 319 304 306 298 286 261 258 256 234 221 209 156 119 112 112 111 104 83 84 105 91 72 74 71 73 79 83 85 89 87 90 93 88
301 297 309 308 317 316 329 340 323 336 340 345 321 305 298 307 313 274 179 177 131 123 122 119 117 113 111 102 91 103 96 95 83 93 98 86 83 84 82 88 91 93 101
308 307 315 320 329 322 359 355 340 336 357 327 322 326 352 351 17 100 106 121 134 128 126 126 120 121 111 107 103 98 115 126 104 85 94 80 73 73 58 66 77 100 92
315 320 314 358 357 17 10 360 349 349 350 331 341 348 28 9 62 91 92 97 99 105 119 130 125 127 123 132 131 119 106 95 103 118 95 88 71 72 67 62 65 106 108
325 323 21 23 22 53 15 0 338 16 33 28 34 21 37 49 79 91 94 101 102 105 114 113 114 124 127 137 145 134 122 115 114 105 106 94 97 88 80 74 59 73 80
333 17 29 41 23 32 14 2 360 43 49 44 57 34 52 88 71 103 100 105 100 94 83 89 97 106 116 119 124 132 137 127 118 108 120 108 113 101 91 88 88 75 74
335 32 64 46 34 10 23 10 18 38 37 48 60 64 43 76 94 85 120 118 112 113 115 109 107 105 111 100 83 101 93 115 120 118 112 117 129 132 91 78 83 98 103